World > North America > United States > South Carolina > Oswego

Oswego, SC Hourly Weather Conditions

Feedback E-mail the Weather

Quick WX

Oswego, SC Weather Maps

°F °C°F °C
Oswego Weather Map
UTC Time: 12/1/2022, 14:20
Your Time:

Oswego, SC Regional Weather

Expires:202212011500;;122082
ASUS42 KCAE 011410
RWRCAE
REGIONAL WEATHER ROUNDUP
NATIONAL WEATHER SERVICE COLUMBIA SC
900 AM EST THU DEC 01 2022

NOTE: "FAIR" INDICATES FEW OR NO CLOUDS BELOW 12,000 FEET WITH NO
SIGNIFICANT WEATHER AND/OR OBSTRUCTIONS TO VISIBILITY.

NOT ALL STATIONS ARE QUALITY CONTROLLED BY THE NATIONAL 
WEATHER SERVICE. USE DATA WITH CAUTION...ESPECIALLY 
DEWPOINT OBSERVATIONS.


SCZ001>059-115-116-135>137-GAZ040-063>065-077-011500-
...UPSTATE SOUTH CAROLINA...
  
CITY           SKY/WX    TMP DP  RH WIND       PRES   REMARKS
ANDERSON       SUNNY     39  24  55 CALM      30.43R                  
LIBERTY        SUNNY     32  27  82 MISG      30.43R                  
SPARTANBURG    SUNNY     37  12  35 CALM      30.43R                  
CLEMSON        SUNNY     39  22  50 CALM      30.44R                  
GREENVILLE     SUNNY     45   8  22 N14G20    30.43R                  
GREENWOOD      SUNNY     39  24  55 CALM      30.46R                  
GREER          SUNNY     41  13  31 CALM      30.43R                  
ROCK HILL      SUNNY     42  19  39 NE10      30.43R                  
CHESTER        SUNNY     37  19  48 N5        30.44R WCI  34          
LAURENS        SUNNY     41  18  38 NE3       30.44R                  


...CENTRAL SOUTH CAROLINA...
  
CITY           SKY/WX    TMP DP  RH WIND       PRES   REMARKS
COLUMBIA APT   SUNNY     41  30  65 SW5       30.45R                  
COLUMBIA OWENS SUNNY     40  31  70 CALM      30.47R                  
MCENTIRE ANGB  MOSUNNY   39  30  70 CALM      30.43R                  
ORANGEBURG     SUNNY     45  24  43 NE6       30.45R                  
SUMTER SHAW    MOSUNNY   44  21  40 N6        30.44R                  
AIKEN          FAIR      41  22  46 NE10      30.44R                  
BARNWELL       FAIR      41  27  56 NE7       30.44R                  
MANNING        FAIR      41  28  60 N5        30.46R                  
CAMDEN         FAIR      37  27  65 CALM      30.45R                  
LANCASTER      SUNNY     37  27  65 CALM      30.43R                  
WINNSBORO      SUNNY     39  25  56 CALM      30.44R                  


...EASTERN AND COASTAL SOUTH CAROLINA...
  
CITY           SKY/WX    TMP DP  RH WIND       PRES   REMARKS
MYRTLE BEACH   SUNNY     45  22  40 N12       30.45R                  
N MYRTLE BCH   SUNNY     44  23  43 N7        30.43R                  
CONWAY         FAIR      43  28  56 NE5       30.45R                  
MARION         FAIR      43  16  33 N7        30.45R                  
FLORENCE       SUNNY     44  23  43 N5        30.44R                  
DARLINGTON     SUNNY     40  25  55 CALM      30.45R                  
CHARLESTON APT SUNNY     49  26  41 NE10      30.44R                  
MOUNT PLEASANT FAIR      46  28  49 CALM      30.44R                  
WALTERBORO     SUNNY     43  30  61 NE5       30.46R                  
BEAUFORT       SUNNY     49  29  46 NE9       30.44R                  


...EASTERN GEORGIA...
  
CITY           SKY/WX    TMP DP  RH WIND       PRES   REMARKS
AUGUSTA BUSH F SUNNY     42  27  55 N6        30.44R                  
AUGUSTA DANIEL SUNNY     43  20  39 NE9       30.44R                  
THOMSON        SUNNY     36  30  79 CALM      30.44R                  
WASHINGTON     FAIR      39  25  56 N3        30.44R                  
CLAXTON        FAIR      45  33  64 NE5       30.44R                  
SYLVANIA       SUNNY     45  31  57 NE5       30.45R                  
STATESBORO     SUNNY     44  29  55 NE6       30.44R                  
SAVANNAH       MOSUNNY   51  24  34 NE12      30.43R                  


...SOUTHERN NORTH CAROLINA...
  
CITY           SKY/WX    TMP DP  RH WIND       PRES   REMARKS
CHARLOTTE      MOSUNNY   40  19  43 N10       30.42R WCI  33          
MONROE         SUNNY     42  17  36 N8        30.41R                  
WADESBORO      SUNNY     40  22  48 CALM      30.43R                  
ROCKINGHAM     SUNNY     41  19  40 N8        30.42R                  
RUTHERFORDTON  SUNNY     41  12  30 N5        30.43R                  
ASHEVILLE      SUNNY     30  15  53 N16G29    30.42R WCI  19          

$$
  

SKY/WX - Weather  TMP - Temperature  DP - Dew Point  RH - Humidity
WIND - Wind Direction/Speed PRES - Barometric Pressure VSB - Visibility
WCI - Wind Chill Index E13G22 Wind - East Wind 13 mph/Gusts of 22 mph

Trending Headlines

Trending Entertainment Headlines

Oswego Radar Loop

Use the map search tool if you want to place a location marker on the radar map...

Oswego Quick Facts

National Two Day Weather Forecast


E-mail the Oswego Weather Forecast

Voice your opinion or tell us about page issues...